When you browse on this site, cookies collect data to enhance your experience and personalize the content and advertising you see.
Visit our Privacy Policy to learn more. By continuing to use the site, you agree to this use of cookies and data.
  • In Netherlands
  • List of Countries
  • For 7 days
  • Water Temperature
  • Weather Map
  • Weather Widgets
  • user-avatar
    Login

    Hourly Weather Chernoyarskaya

    Today, 15 September, Sunday

    Time Temperature Precipitation Wind Pressure Humidity
    00:00 +17°C° 0 mm 2 mps 750 mmHg 68%
    01:00 +16°C° 0 mm 1 mps 749 mmHg 70%
    02:00 +16°C° 0 mm 1 mps 749 mmHg 72%
    03:00 +15°C° 0 mm 0 mps 749 mmHg 77%
    04:00 +15°C° 0 mm 1 mps 749 mmHg 77%
    05:00 +15°C° 0 mm 1 mps 750 mmHg 77%
    06:00 +15°C° 0 mm 1 mps 750 mmHg 78%
    07:00 +19°C° 0 mm 1 mps 750 mmHg 68%
    08:00 +21°C° 0 mm 1 mps 749 mmHg 58%
    09:00 +24°C° 0 mm 2 mps 750 mmHg 47%
    10:00 +25°C° 0 mm 2 mps 749 mmHg 42%
    11:00 +27°C° 0 mm 2 mps 749 mmHg 37%
    12:00 +28°C° 0 mm 2 mps 749 mmHg 32%
    13:00 +29°C° 0 mm 1 mps 749 mmHg 31%
    14:00 +29°C° 0 mm 1 mps 749 mmHg 29%
    15:00 +30°C° 0 mm 1 mps 749 mmHg 29%
    16:00 +28°C° 0 mm 1 mps 749 mmHg 32%
    17:00 +27°C° 0 mm 1 mps 749 mmHg 36%
    18:00 +26°C° 0 mm 1 mps 749 mmHg 39%
    19:00 +24°C° 0 mm 1 mps 750 mmHg 41%
    20:00 +23°C° 0 mm 1 mps 750 mmHg 43%
    21:00 +22°C° 0 mm 1 mps 750 mmHg 45%
    22:00 +21°C° 0 mm 1 mps 750 mmHg 47%
    23:00 +20°C° 0 mm 2 mps 750 mmHg 48%

    Tomorrow, 16 September, Monday

    Time Temperature Precipitation Wind Pressure Humidity
    00:00 +19°C° 0 mm 2 mps 750 mmHg 50%
    01:00 +18°C° 0 mm 2 mps 750 mmHg 52%
    02:00 +17°C° 0 mm 2 mps 750 mmHg 54%
    03:00 +17°C° 0 mm 2 mps 750 mmHg 56%
    04:00 +16°C° 0 mm 2 mps 750 mmHg 62%
    05:00 +15°C° 0 mm 2 mps 750 mmHg 67%
    06:00 +14°C° 0 mm 2 mps 750 mmHg 73%
    07:00 +16°C° 0 mm 2 mps 749 mmHg 67%
    08:00 +19°C° 0 mm 1 mps 749 mmHg 60%
    09:00 +21°C° 0 mm 1 mps 749 mmHg 54%
    10:00 +23°C° 0 mm 2 mps 748 mmHg 48%
    11:00 +25°C° 0 mm 2 mps 748 mmHg 42%
    12:00 +27°C° 0 mm 3 mps 747 mmHg 36%
    13:00 +28°C° 0 mm 3 mps 747 mmHg 35%
    14:00 +28°C° 0 mm 3 mps 746 mmHg 33%
    15:00 +29°C° 0 mm 3 mps 746 mmHg 32%
    16:00 +28°C° 0 mm 2 mps 746 mmHg 36%
    17:00 +26°C° 0 mm 2 mps 746 mmHg 40%
    18:00 +25°C° 0 mm 1 mps 745 mmHg 44%
    19:00 +24°C° 0 mm 1 mps 746 mmHg 47%
    20:00 +23°C° 0 mm 1 mps 746 mmHg 49%
    21:00 +22°C° 0 mm 1 mps 746 mmHg 51%
    22:00 +21°C° 0 mm 1 mps 746 mmHg 54%
    23:00 +21°C° 0 mm 1 mps 746 mmHg 56%

    Day after tomorrow, 17 September, Tuesday

    Time Temperature Precipitation Wind Pressure Humidity
    00:00 +20°C° 0 mm 1 mps 745 mmHg 58%
    01:00 +20°C° 0 mm 1 mps 745 mmHg 59%
    02:00 +20°C° 0 mm 1 mps 745 mmHg 60%
    03:00 +19°C° 0 mm 1 mps 745 mmHg 61%
    04:00 +20°C° 0 mm 1 mps 745 mmHg 61%
    05:00 +20°C° 0 mm 1 mps 745 mmHg 61%
    06:00 +20°C° 0 mm 1 mps 745 mmHg 61%
    07:00 +21°C° 0 mm 2 mps 745 mmHg 56%
    08:00 +23°C° 0 mm 2 mps 745 mmHg 51%
    09:00 +25°C° 0 mm 3 mps 745 mmHg 46%
    10:00 +26°C° 0 mm 3 mps 745 mmHg 44%
    11:00 +27°C° 0 mm 3 mps 745 mmHg 41%
    12:00 +28°C° 0 mm 3 mps 745 mmHg 39%
    13:00 +29°C° 0 mm 3 mps 745 mmHg 38%
    14:00 +29°C° 0 mm 3 mps 745 mmHg 37%
    15:00 +29°C° 0 mm 2 mps 744 mmHg 37%
    16:00 +26°C° 0.3 mm 3 mps 744 mmHg 50%
    17:00 +22°C° 0.3 mm 3 mps 745 mmHg 64%
    18:00 +19°C° 0.3 mm 3 mps 745 mmHg 78%
    19:00 +19°C° 0.2 mm 2 mps 745 mmHg 81%
    20:00 +19°C° 0.2 mm 2 mps 745 mmHg 83%
    21:00 +18°C° 0.2 mm 2 mps 745 mmHg 86%
    22:00 +19°C° 0 mm 1 mps 745 mmHg 85%
    23:00 +19°C° 0 mm 1 mps 745 mmHg 84%

    18 September, Wednesday

    Time Temperature Precipitation Wind Pressure Humidity
    00:00 +19°C° 0 mm 1 mps 745 mmHg 83%
    01:00 +19°C° 0 mm 1 mps 745 mmHg 83%
    02:00 +17°C° 0 mm 2 mps 745 mmHg 82%
    03:00 +17°C° 0 mm 2 mps 746 mmHg 81%
    04:00 +17°C° 0 mm 2 mps 746 mmHg 81%
    05:00 +17°C° 0 mm 2 mps 746 mmHg 80%
    06:00 +16°C° 0 mm 1 mps 746 mmHg 79%
    07:00 +19°C° 0 mm 1 mps 747 mmHg 69%
    08:00 +22°C° 0 mm 1 mps 747 mmHg 59%
    09:00 +24°C° 0 mm 1 mps 747 mmHg 48%
    10:00 +25°C° 0 mm 1 mps 747 mmHg 45%
    11:00 +27°C° 0 mm 1 mps 747 mmHg 41%
    12:00 +29°C° 0 mm 2 mps 747 mmHg 38%
    13:00 +29°C° 0 mm 2 mps 746 mmHg 35%
    14:00 +30°C° 0 mm 2 mps 746 mmHg 32%
    15:00 +31°C° 0 mm 2 mps 746 mmHg 29%
    16:00 +29°C° 0 mm 2 mps 746 mmHg 33%
    17:00 +28°C° 0 mm 2 mps 746 mmHg 36%
    18:00 +26°C° 0 mm 3 mps 746 mmHg 40%
    19:00 +25°C° 0 mm 2 mps 746 mmHg 43%
    20:00 +24°C° 0 mm 2 mps 746 mmHg 45%
    21:00 +23°C° 0 mm 2 mps 747 mmHg 48%
    22:00 +23°C° 0 mm 2 mps 747 mmHg 51%
    23:00 +21°C° 0 mm 2 mps 747 mmHg 54%

    19 September, Thursday

    Time Temperature Precipitation Wind Pressure Humidity
    00:00 +21°C° 0 mm 1 mps 746 mmHg 57%
    01:00 +20°C° 0 mm 2 mps 747 mmHg 57%
    02:00 +20°C° 0 mm 2 mps 747 mmHg 57%
    03:00 +19°C° 0 mm 2 mps 747 mmHg 58%
    04:00 +18°C° 0 mm 2 mps 748 mmHg 59%
    05:00 +18°C° 0 mm 2 mps 748 mmHg 61%
    06:00 +17°C° 0 mm 2 mps 748 mmHg 62%
    07:00 +18°C° 0 mm 2 mps 748 mmHg 63%
    08:00 +19°C° 0 mm 2 mps 749 mmHg 63%
    09:00 +20°C° 0 mm 2 mps 749 mmHg 64%
    10:00 +21°C° 0 mm 3 mps 749 mmHg 61%
    11:00 +22°C° 0 mm 3 mps 749 mmHg 58%
    12:00 +22°C° 0 mm 3 mps 749 mmHg 56%
    13:00 +24°C° 0 mm 3 mps 748 mmHg 53%
    14:00 +24°C° 0 mm 3 mps 748 mmHg 51%
    15:00 +25°C° 0 mm 3 mps 748 mmHg 49%
    16:00 +24°C° 0 mm 2 mps 748 mmHg 51%
    17:00 +23°C° 0 mm 2 mps 748 mmHg 53%
    18:00 +21°C° 0 mm 2 mps 748 mmHg 55%
    19:00 +21°C° 0 mm 2 mps 748 mmHg 57%
    20:00 +20°C° 0 mm 2 mps 748 mmHg 59%
    21:00 +19°C° 0 mm 2 mps 748 mmHg 61%
    22:00 +19°C° 0 mm 2 mps 748 mmHg 63%
    23:00 +18°C° 0 mm 2 mps 748 mmHg 66%

    20 September, Friday

    Time Temperature Precipitation Wind Pressure Humidity
    00:00 +17°C° 0 mm 2 mps 748 mmHg 68%
    01:00 +17°C° 0 mm 2 mps 748 mmHg 71%
    02:00 +18°C° 0 mm 1 mps 747 mmHg 73%
    03:00 +16°C° 0 mm 1 mps 747 mmHg 76%
    04:00 +16°C° 0 mm 1 mps 747 mmHg 77%
    05:00 +15°C° 0 mm 1 mps 747 mmHg 78%
    06:00 +15°C° 0 mm 1 mps 747 mmHg 79%
    07:00 +17°C° 0 mm 2 mps 747 mmHg 72%
    08:00 +18°C° 0 mm 2 mps 746 mmHg 66%
    09:00 +20°C° 0 mm 2 mps 746 mmHg 59%
    10:00 +21°C° 0 mm 2 mps 746 mmHg 58%
    11:00 +22°C° 0 mm 3 mps 746 mmHg 58%
    12:00 +24°C° 0 mm 3 mps 745 mmHg 57%
    13:00 +24°C° 0 mm 3 mps 745 mmHg 59%
    14:00 +23°C° 0 mm 2 mps 745 mmHg 61%
    15:00 +23°C° 0 mm 2 mps 745 mmHg 63%
    16:00 +21°C° 0 mm 3 mps 745 mmHg 58%
    17:00 +20°C° 0 mm 4 mps 745 mmHg 54%
    18:00 +19°C° 0 mm 5 mps 745 mmHg 50%
    19:00 +19°C° 0 mm 4 mps 745 mmHg 48%
    20:00 +18°C° 0 mm 4 mps 745 mmHg 46%
    21:00 +18°C° 0 mm 3 mps 746 mmHg 45%
    22:00 +17°C° 0 mm 3 mps 746 mmHg 46%
    23:00 +17°C° 0 mm 4 mps 746 mmHg 47%
    Show more